| time (UTC) | temp F | wind direction | speed MPH | gust MPH | rain 1hr in | rain 24hr in | rain mn in | humidity % | barometer mb |
| 20260831042904 | 72 | 177 | 0.0 | 0.0 | 0.00 | 0.00 | 0.00 | 96 | 1010.0 |
| 20260831042404 | 73 | 173 | 0.0 | 0.0 | 0.00 | 0.00 | 0.00 | 95 | 1010.0 |
| 20260831041859 | 73 | 170 | 0.0 | 0.0 | 0.00 | 0.00 | 0.00 | 95 | 1010.0 |
| 20260831041358 | 73 | 177 | 0.0 | 0.0 | 0.00 | 0.00 | 0.00 | 94 | 1010.0 |
| 20260831040853 | 73 | 168 | 0.0 | 0.0 | 0.00 | 0.00 | 0.00 | 94 | 1010.0 |
| 20260831040348 | 73 | 182 | 0.0 | 0.0 | 0.00 | 0.00 | 0.00 | 94 | 1010.0 |
| 20260831035846 | 73 | 174 | 0.0 | 0.0 | 0.00 | 0.00 | 0.00 | 93 | 1010.0 |
| 20260831035345 | 73 | 185 | 0.0 | 0.0 | 0.00 | 0.00 | 0.00 | 93 | 1010.0 |
| 20260831034839 | 73 | 175 | 0.0 | 0.0 | 0.00 | 0.00 | 0.00 | 93 | 1010.0 |
| 20260831034335 | 73 | 175 | 0.0 | 1.0 | 0.00 | 0.00 | 0.00 | 94 | 1010.0 |
| 20260831033830 | 73 | 159 | 1.0 | 1.0 | 0.00 | 0.00 | 0.00 | 94 | 1010.0 |
| 20260831033331 | 73 | 175 | 0.0 | 0.0 | 0.00 | 0.00 | 0.00 | 94 | 1010.0 |
| 20260831032826 | 74 | 174 | 0.0 | 0.0 | 0.00 | 0.00 | 0.00 | 93 | 1010.0 |
| 20260831032320 | 74 | 175 | 0.0 | 0.0 | 0.00 | 0.00 | 0.00 | 93 | 1010.0 |
| 20260831031816 | 74 | 172 | 0.0 | 0.0 | 0.00 | 0.00 | 0.00 | 93 | 1010.0 |
| 20260831031315 | 74 | 202 | 0.0 | 0.0 | 0.00 | 0.00 | 0.00 | 93 | 1010.0 |
| 20260831030810 | 74 | 154 | 0.0 | 0.0 | 0.00 | 0.00 | 0.00 | 93 | 1010.0 |
| 20260831030308 | 74 | 174 | 0.0 | 0.0 | 0.00 | 0.00 | 0.00 | 93 | 1010.0 |
| 20260831025802 | 74 | 182 | 0.0 | 1.0 | 0.00 | 0.00 | 0.00 | 94 | 1010.0 |
| 20260831025256 | 74 | 183 | 0.0 | 1.0 | 0.00 | 0.00 | 0.00 | 95 | 1010.0 |
| 20260831024752 | 74 | 184 | 0.0 | 0.0 | 0.00 | 0.00 | 0.00 | 96 | 1010.0 |
| 20260831024251 | 74 | 184 | 0.0 | 0.0 | 0.00 | 0.00 | 0.00 | 97 | 1010.0 |
| 20260831023750 | 74 | 174 | 0.0 | 0.0 | 0.00 | 0.00 | 0.00 | 97 | 1010.0 |
| 20260831023249 | 74 | 174 | 0.0 | 0.0 | 0.00 | 0.00 | 0.00 | 98 | 1010.4 |
| 20260831022744 | 74 | 170 | 0.0 | 0.0 | 0.00 | 0.00 | 0.00 | 98 | 1010.0 |
| 20260831022243 | 74 | 170 | 0.0 | 0.0 | 0.00 | 0.00 | 0.00 | 98 | 1010.4 |
| 20260831021739 | 75 | 166 | 0.0 | 0.0 | 0.00 | 0.00 | 0.00 | 97 | 1010.4 |
| 20260831021238 | 75 | 167 | 0.0 | 0.0 | 0.00 | 0.00 | 0.00 | 97 | 1010.4 |
| 20260831020735 | 76 | 168 | 0.0 | 0.0 | 0.00 | 0.00 | 0.00 | 96 | 1010.4 |
| 20260831020233 | 76 | 160 | 0.0 | 0.0 | 0.00 | 0.00 | 0.00 | 95 | 1010.4 |
| 20260831015729 | 76 | 160 | 0.0 | 0.0 | 0.00 | 0.00 | 0.00 | 95 | 1010.4 |
| 20260831015225 | 76 | 160 | 0.0 | 0.0 | 0.00 | 0.00 | 0.00 | 95 | 1010.4 |
| 20260831014720 | 76 | 154 | 1.0 | 1.0 | 0.00 | 0.00 | 0.00 | 95 | 1010.0 |
| 20260831014214 | 76 | 132 | 2.0 | 3.0 | 0.00 | 0.00 | 0.00 | 95 | 1010.4 |
| 20260831013711 | 76 | 160 | 0.0 | 1.0 | 0.00 | 0.00 | 0.00 | 96 | 1010.4 |
| 20260831013210 | 76 | 177 | 0.0 | 0.0 | 0.00 | 0.00 | 0.00 | 96 | 1010.0 |
| 20260831012705 | 75 | 184 | 0.0 | 0.0 | 0.00 | 0.00 | 0.00 | 96 | 1010.0 |
| 20260831012201 | 76 | 172 | 0.0 | 0.0 | 0.00 | 0.00 | 0.00 | 96 | 1009.7 |
| 20260831011659 | 76 | 172 | 0.0 | 0.0 | 0.00 | 0.00 | 0.00 | 96 | 1010.0 |
| 20260831011155 | 76 | 178 | 0.0 | 0.0 | 0.00 | 0.00 | 0.00 | 95 | 1010.0 |
| 20260831010651 | 76 | 98 | 2.0 | 2.0 | 0.00 | 0.00 | 0.00 | 95 | 1009.7 |
| 20260831010146 | 76 | 176 | 0.0 | 0.0 | 0.00 | 0.00 | 0.00 | 95 | 1009.7 |
| 20260831005646 | 77 | 171 | 0.0 | 0.0 | 0.00 | 0.00 | 0.00 | 95 | 1009.7 |
| 20260831005141 | 77 | 173 | 0.0 | 0.0 | 0.00 | 0.00 | 0.00 | 94 | 1009.4 |
| 20260831004637 | 77 | 165 | 0.0 | 0.0 | 0.00 | 0.00 | 0.00 | 93 | 1009.7 |
| 20260831004132 | 78 | 174 | 0.0 | 0.0 | 0.00 | 0.00 | 0.00 | 93 | 1009.4 |
| 20260831003628 | 78 | 168 | 0.0 | 0.0 | 0.00 | 0.00 | 0.00 | 93 | 1009.4 |
| 20260831003124 | 78 | 171 | 0.0 | 0.0 | 0.00 | 0.00 | 0.00 | 92 | 1009.7 |
| 20260831002623 | 78 | 174 | 0.0 | 0.0 | 0.00 | 0.00 | 0.00 | 91 | 1009.7 |
| 20260831002118 | 78 | 172 | 0.0 | 0.0 | 0.00 | 0.00 | 0.00 | 91 | 1009.7 |
| 20260831001613 | 79 | 172 | 0.0 | 0.0 | 0.00 | 0.00 | 0.00 | 91 | 1009.7 |
| 20260831001109 | 79 | 181 | 0.0 | 0.0 | 0.00 | 0.00 | 0.00 | 90 | 1009.7 |
| 20260831000606 | 79 | 173 | 0.0 | 0.0 | 0.00 | 0.00 | 0.00 | 89 | 1009.7 |
| 20260831000105 | 79 | 165 | 0.0 | 0.0 | 0.00 | 0.00 | 0.00 | 89 | 1009.7 |
| 20260830235604 | 80 | 167 | 1.0 | 2.0 | 0.00 | 0.00 | 0.00 | 89 | 1009.7 |
| 20260830235059 | 80 | 182 | 0.0 | 0.0 | 0.00 | 0.00 | 0.00 | 89 | 1009.4 |
| 20260830234554 | 80 | 163 | 1.0 | 1.0 | 0.00 | 0.00 | 0.00 | 89 | 1009.4 |
| 20260830234049 | 80 | 143 | 2.0 | 2.0 | 0.00 | 0.00 | 0.00 | 88 | 1009.4 |
| 20260830233544 | 80 | 176 | 0.0 | 0.0 | 0.00 | 0.00 | 0.00 | 88 | 1009.4 |
| 20260830233040 | 80 | 165 | 1.0 | 1.0 | 0.00 | 0.00 | 0.00 | 88 | 1009.4 |
| 20260830232536 | 80 | 175 | 0.0 | 0.0 | 0.00 | 0.00 | 0.00 | 88 | 1009.4 |
| 20260830232032 | 80 | 150 | 1.0 | 1.0 | 0.00 | 0.00 | 0.00 | 87 | 1009.4 |
| 20260830231528 | 80 | 184 | 0.0 | 0.0 | 0.00 | 0.00 | 0.00 | 87 | 1009.4 |
| 20260830231027 | 80 | 174 | 0.0 | 0.0 | 0.00 | 0.00 | 0.00 | 88 | 1009.4 |
| 20260830230522 | 80 | 145 | 0.0 | 1.0 | 0.00 | 0.00 | 0.00 | 87 | 1009.4 |
| 20260830230017 | 80 | 200 | 2.0 | 3.0 | 0.00 | 0.00 | 0.00 | 87 | 1009.4 |
| 20260830225512 | 80 | 85 | 2.0 | 2.0 | 0.00 | 0.00 | 0.00 | 86 | 1009.4 |
| 20260830225012 | 81 | 175 | 0.0 | 0.0 | 0.00 | 0.00 | 0.00 | 84 | 1009.4 |
| 20260830224510 | 82 | 164 | 2.0 | 2.0 | 0.00 | 0.00 | 0.00 | 84 | 1009.4 |
| 20260830224007 | 82 | 167 | 0.0 | 0.0 | 0.00 | 0.00 | 0.00 | 83 | 1009.4 |
| 20260830223504 | 82 | 335 | 1.0 | 2.0 | 0.00 | 0.00 | 0.00 | 82 | 1009.0 |
| 20260830223003 | 83 | 153 | 2.0 | 3.0 | 0.00 | 0.00 | 0.00 | 82 | 1009.4 |
| 20260830222458 | 83 | 169 | 1.0 | 1.0 | 0.00 | 0.00 | 0.00 | 82 | 1009.4 |
| 20260830221954 | 82 | 106 | 2.0 | 3.0 | 0.00 | 0.00 | 0.00 | 82 | 1009.4 |
| 20260830221450 | 82 | 158 | 3.0 | 3.0 | 0.00 | 0.00 | 0.00 | 83 | 1009.4 |
| 20260830220945 | 82 | 151 | 2.0 | 3.0 | 0.00 | 0.00 | 0.00 | 82 | 1009.4 |
| 20260830220445 | 82 | 148 | 1.0 | 2.0 | 0.00 | 0.00 | 0.00 | 83 | 1009.0 |
| 20260830215943 | 82 | 122 | 4.0 | 6.0 | 0.00 | 0.00 | 0.00 | 82 | 1009.0 |
| 20260830215438 | 81 | 162 | 1.0 | 2.0 | 0.00 | 0.00 | 0.00 | 85 | 1009.4 |
| 20260830214932 | 81 | 134 | 0.0 | 0.0 | 0.00 | 0.00 | 0.00 | 84 | 1009.7 |
| 20260830214428 | 81 | 134 | 0.0 | 0.0 | 0.00 | 0.00 | 0.00 | 84 | 1009.7 |
| 20260830213922 | 81 | 142 | 1.0 | 1.0 | 0.00 | 0.00 | 0.00 | 84 | 1009.4 |
| 20260830213418 | 81 | 156 | 0.0 | 1.0 | 0.00 | 0.00 | 0.00 | 86 | 1009.4 |
| 20260830212913 | 81 | 164 | 1.0 | 1.0 | 0.00 | 0.00 | 0.00 | 85 | 1009.4 |
| 20260830212409 | 80 | 182 | 0.0 | 1.0 | 0.00 | 0.00 | 0.00 | 85 | 1009.4 |
| 20260830211908 | 81 | 165 | 3.0 | 3.0 | 0.00 | 0.00 | 0.00 | 85 | 1009.4 |
| 20260830211408 | 81 | 128 | 3.0 | 3.0 | 0.00 | 0.00 | 0.00 | 84 | 1009.4 |
| 20260830210904 | 79 | 154 | 3.0 | 5.0 | 0.00 | 0.00 | 0.00 | 86 | 1009.4 |
| 20260830210403 | 79 | 147 | 2.0 | 2.0 | 0.00 | 0.00 | 0.00 | 87 | 1009.7 |
| 20260830205901 | 79 | 170 | 0.0 | 0.0 | 0.00 | 0.00 | 0.00 | 87 | 1009.4 |
| 20260830205400 | 80 | 112 | 3.0 | 5.0 | 0.00 | 0.00 | 0.00 | 85 | 1009.4 |
| 20260830204856 | 80 | 151 | 2.0 | 3.0 | 0.00 | 0.00 | 0.00 | 86 | 1009.7 |
| 20260830204354 | 80 | 117 | 3.0 | 6.0 | 0.00 | 0.00 | 0.00 | 84 | 1009.4 |
| 20260830203850 | 81 | 134 | 5.0 | 7.0 | 0.00 | 0.00 | 0.00 | 85 | 1009.4 |
| 20260830203347 | 82 | 91 | 5.0 | 6.0 | 0.00 | 0.00 | 0.00 | 83 | 1009.0 |
| 20260830202845 | 82 | 122 | 2.0 | 3.0 | 0.00 | 0.00 | 0.00 | 82 | 1008.7 |
| 20260830202341 | 81 | 181 | 1.0 | 1.0 | 0.00 | 0.00 | 0.00 | 83 | 1009.0 |
| 20260830201836 | 81 | 310 | 3.0 | 5.0 | 0.00 | 0.00 | 0.00 | 83 | 1009.4 |
| 20260830201330 | 80 | 195 | 4.0 | 5.0 | 0.00 | 0.00 | 0.00 | 85 | 1009.4 |
| 20260830200826 | 80 | 175 | 1.0 | 1.0 | 0.00 | 0.00 | 0.00 | 86 | 1009.4 |
| 20260830200325 | 80 | 61 | 2.0 | 3.0 | 0.00 | 0.00 | 0.00 | 85 | 1009.7 |
| 20260830195820 | 80 | 89 | 1.0 | 2.0 | 0.00 | 0.00 | 0.00 | 86 | 1009.7 |
| 20260830195315 | 79 | 155 | 1.0 | 1.0 | 0.00 | 0.00 | 0.00 | 88 | 1009.7 |
| 20260830194813 | 78 | 161 | 1.0 | 2.0 | 0.00 | 0.00 | 0.00 | 88 | 1009.7 |
| 20260830194312 | 78 | 125 | 3.0 | 5.0 | 0.00 | 0.00 | 0.00 | 88 | 1010.0 |
| 20260830193808 | 78 | 163 | 1.0 | 1.0 | 0.00 | 0.00 | 0.00 | 88 | 1009.7 |
| 20260830193301 | 78 | 159 | 0.0 | 1.0 | 0.00 | 0.00 | 0.00 | 89 | 1010.0 |
| 20260830192758 | 78 | 197 | 1.0 | 1.0 | 0.00 | 0.00 | 0.00 | 88 | 1010.4 |
| 20260830192257 | 78 | 144 | 1.0 | 1.0 | 0.00 | 0.00 | 0.00 | 88 | 1010.4 |
| 20260830191753 | 78 | 117 | 1.0 | 1.0 | 0.00 | 0.00 | 0.00 | 89 | 1010.4 |
| 20260830191252 | 78 | 162 | 1.0 | 2.0 | 0.00 | 0.00 | 0.00 | 90 | 1010.4 |
| 20260830190749 | 78 | 141 | 1.0 | 1.0 | 0.00 | 0.00 | 0.00 | 90 | 1010.4 |
| 20260830190244 | 77 | 170 | 0.0 | 0.0 | 0.00 | 0.00 | 0.00 | 90 | 1010.4 |
| 20260830185742 | 77 | 147 | 0.0 | 1.0 | 0.00 | 0.00 | 0.00 | 90 | 1010.7 |
| 20260830185237 | 77 | 183 | 2.0 | 3.0 | 0.00 | 0.00 | 0.00 | 90 | 1010.7 |
| 20260830184737 | 77 | 179 | 2.0 | 2.0 | 0.00 | 0.00 | 0.00 | 91 | 1010.7 |
| 20260830184236 | 77 | 160 | 1.0 | 2.0 | 0.00 | 0.00 | 0.00 | 92 | 1010.7 |
| 20260830183732 | 76 | 166 | 0.0 | 1.0 | 0.00 | 0.00 | 0.00 | 92 | 1010.4 |
| 20260830183227 | 76 | 161 | 0.0 | 1.0 | 0.00 | 0.00 | 0.00 | 92 | 1010.7 |
| 20260830182721 | 76 | 171 | 0.0 | 0.0 | 0.00 | 0.00 | 0.00 | 92 | 1011.1 |
| 20260830182218 | 76 | 133 | 0.0 | 0.0 | 0.00 | 0.00 | 0.00 | 93 | 1010.7 |
| 20260830181714 | 76 | 127 | 0.0 | 0.0 | 0.00 | 0.00 | 0.00 | 92 | 1011.1 |
| 20260830181209 | 76 | 174 | 0.0 | 0.0 | 0.00 | 0.00 | 0.00 | 93 | 1011.1 |
| 20260830180707 | 76 | 167 | 0.0 | 1.0 | 0.00 | 0.00 | 0.00 | 93 | 1011.1 |
| 20260830180202 | 76 | 164 | 0.0 | 0.0 | 0.00 | 0.00 | 0.00 | 92 | 1010.7 |
| 20260830175702 | 76 | 247 | 1.0 | 2.0 | 0.00 | 0.00 | 0.00 | 90 | 1010.7 |
| 20260830175156 | 76 | 170 | 1.0 | 2.0 | 0.00 | 0.00 | 0.00 | 91 | 1010.7 |
| 20260830174652 | 76 | 170 | 0.0 | 1.0 | 0.00 | 0.00 | 0.00 | 91 | 1011.1 |
| 20260830174147 | 77 | 161 | 2.0 | 2.0 | 0.00 | 0.00 | 0.00 | 89 | 1010.4 |
| 20260830173642 | 77 | 132 | 0.0 | 1.0 | 0.00 | 0.00 | 0.00 | 88 | 1010.7 |
| 20260830173137 | 77 | 178 | 2.0 | 3.0 | 0.00 | 0.00 | 0.00 | 88 | 1010.4 |
| 20260830172634 | 77 | 156 | 3.0 | 5.0 | 0.00 | 0.00 | 0.00 | 88 | 1010.4 |
| 20260830172130 | 77 | 145 | 1.0 | 2.0 | 0.00 | 0.00 | 0.00 | 88 | 1010.4 |
| 20260830171630 | 77 | 175 | 0.0 | 1.0 | 0.00 | 0.00 | 0.00 | 88 | 1010.7 |
| 20260830171125 | 77 | 69 | 4.0 | 6.0 | 0.00 | 0.00 | 0.00 | 88 | 1010.4 |
| 20260830170620 | 77 | 168 | 1.0 | 1.0 | 0.00 | 0.00 | 0.00 | 90 | 1010.7 |
| 20260830170119 | 77 | 179 | 1.0 | 2.0 | 0.00 | 0.00 | 0.00 | 89 | 1010.4 |
| 20260830165614 | 77 | 87 | 1.0 | 2.0 | 0.00 | 0.00 | 0.00 | 88 | 1010.4 |
| 20260830165109 | 77 | 153 | 1.0 | 1.0 | 0.00 | 0.00 | 0.00 | 89 | 1010.0 |
| 20260830164605 | 77 | 142 | 1.0 | 2.0 | 0.00 | 0.00 | 0.00 | 88 | 1010.0 |
| 20260830164101 | 77 | 17 | 3.0 | 3.0 | 0.00 | 0.00 | 0.00 | 87 | 1010.0 |
| 20260830163558 | 78 | 181 | 0.0 | 0.0 | 0.00 | 0.00 | 0.00 | 88 | 1010.0 |
| 20260830163057 | 78 | 153 | 1.0 | 1.0 | 0.00 | 0.00 | 0.00 | 87 | 1010.0 |
| 20260830162553 | 77 | 17 | 0.0 | 1.0 | 0.00 | 0.00 | 0.00 | 89 | 1010.0 |
| 20260830162049 | 77 | 185 | 2.0 | 2.0 | 0.00 | 0.00 | 0.00 | 88 | 1009.4 |
| 20260830161548 | 77 | 110 | 3.0 | 5.0 | 0.00 | 0.00 | 0.00 | 88 | 1010.0 |
| 20260830161044 | 76 | 71 | 2.0 | 2.0 | 0.00 | 0.00 | 0.00 | 89 | 1010.0 |
| 20260830160539 | 76 | 54 | 1.0 | 3.0 | 0.00 | 0.00 | 0.00 | 89 | 1010.4 |
| 20260830160035 | 76 | 195 | 2.0 | 3.0 | 0.00 | 0.00 | 0.00 | 89 | 1010.4 |
| 20260830155531 | 76 | 68 | 5.0 | 7.0 | 0.00 | 0.00 | 0.00 | 90 | 1009.7 |
| 20260830155026 | 76 | 70 | 2.0 | 3.0 | 0.00 | 0.00 | 0.00 | 89 | 1009.7 |
| 20260830154521 | 76 | 255 | 2.0 | 2.0 | 0.00 | 0.00 | 0.00 | 89 | 1010.0 |
| 20260830154017 | 76 | 58 | 2.0 | 2.0 | 0.00 | 0.00 | 0.00 | 89 | 1009.7 |
| 20260830153514 | 76 | 71 | 2.0 | 3.0 | 0.00 | 0.00 | 0.00 | 88 | 1009.7 |
| 20260830153013 | 76 | 96 | 3.0 | 3.0 | 0.00 | 0.00 | 0.00 | 89 | 1010.0 |
| 20260830152508 | 75 | 136 | 3.0 | 5.0 | 0.00 | 0.00 | 0.00 | 90 | 1010.0 |
| 20260830152006 | 74 | 72 | 5.0 | 6.0 | 0.00 | 0.00 | 0.00 | 92 | 1010.0 |
| 20260830151501 | 74 | 150 | 0.0 | 1.0 | 0.00 | 0.00 | 0.00 | 92 | 1010.0 |
| 20260830150956 | 74 | 158 | 1.0 | 1.0 | 0.00 | 0.00 | 0.00 | 92 | 1010.4 |
| 20260830150455 | 75 | 171 | 0.0 | 1.0 | 0.00 | 0.00 | 0.00 | 92 | 1010.0 |
| 20260830145950 | 74 | 165 | 0.0 | 1.0 | 0.00 | 0.00 | 0.00 | 93 | 1010.0 |
| 20260830145444 | 73 | 124 | 2.0 | 2.0 | 0.00 | 0.00 | 0.00 | 95 | 1010.4 |
| 20260830144940 | 71 | 159 | 0.0 | 1.0 | 0.00 | 0.00 | 0.00 | 97 | 1010.4 |
| 20260830144436 | 71 | 149 | 3.0 | 6.0 | 0.00 | 0.00 | 0.00 | 97 | 1010.0 |
| 20260830143931 | 71 | 185 | 0.0 | 1.0 | 0.00 | 0.00 | 0.00 | 97 | 1009.7 |
| 20260830143426 | 71 | 174 | 0.0 | 0.0 | 0.00 | 0.00 | 0.00 | 97 | 1010.0 |
| 20260830142925 | 71 | 34 | 4.0 | 5.0 | 0.00 | 0.00 | 0.00 | 98 | 1010.0 |
| 20260830142420 | 70 | 170 | 1.0 | 2.0 | 0.00 | 0.00 | 0.00 | 99 | 1010.0 |
| 20260830141914 | 69 | 156 | 1.0 | 2.0 | 0.00 | 0.00 | 0.00 | 99 | 1010.0 |
| 20260830141410 | 69 | 73 | 1.0 | 2.0 | 0.00 | 0.00 | 0.00 | 99 | 1010.4 |
| 20260830140905 | 69 | 175 | 1.0 | 1.0 | 0.00 | 0.00 | 0.00 | 99 | 1010.4 |
| 20260830140400 | 68 | 143 | 0.0 | 1.0 | 0.00 | 0.00 | 0.00 | 99 | 1010.4 |
| 20260830135859 | 68 | 182 | 0.0 | 0.0 | 0.00 | 0.00 | 0.00 | 99 | 1010.4 |
| 20260830135354 | 68 | 175 | 0.0 | 0.0 | 0.00 | 0.00 | 0.00 | 99 | 1010.4 |
| 20260830134850 | 68 | 131 | 0.0 | 1.0 | 0.00 | 0.00 | 0.00 | 99 | 1010.4 |
| 20260830134345 | 68 | 173 | 0.0 | 0.0 | 0.00 | 0.00 | 0.00 | 99 | 1010.0 |
| 20260830133841 | 67 | 153 | 0.0 | 1.0 | 0.00 | 0.00 | 0.00 | 99 | 1010.0 |
| 20260830133337 | 67 | 184 | 0.0 | 0.0 | 0.00 | 0.00 | 0.00 | 99 | 1009.7 |
| 20260830132832 | 67 | 127 | 1.0 | 1.0 | 0.00 | 0.00 | 0.00 | 99 | 1010.0 |
| 20260830132328 | 67 | 147 | 0.0 | 1.0 | 0.00 | 0.00 | 0.00 | 99 | 1010.0 |
| 20260830131827 | 67 | 126 | 1.0 | 2.0 | 0.00 | 0.00 | 0.00 | 99 | 1010.4 |
| 20260830131321 | 67 | 166 | 0.0 | 0.0 | 0.00 | 0.00 | 0.00 | 99 | 1010.7 |
| 20260830130816 | 67 | 176 | 0.0 | 0.0 | 0.00 | 0.00 | 0.00 | 99 | 1010.4 |
| 20260830130312 | 66 | 145 | 1.0 | 1.0 | 0.00 | 0.00 | 0.00 | 99 | 1010.4 |
| 20260830125810 | 66 | 167 | 0.0 | 0.0 | 0.00 | 0.00 | 0.00 | 99 | 1010.0 |
| 20260830125307 | 66 | 181 | 0.0 | 0.0 | 0.00 | 0.00 | 0.00 | 99 | 1010.4 |
| 20260830124803 | 66 | 174 | 0.0 | 0.0 | 0.00 | 0.00 | 0.00 | 99 | 1010.4 |
| 20260830124259 | 66 | 173 | 0.0 | 0.0 | 0.00 | 0.00 | 0.00 | 99 | 1010.0 |
| 20260830123756 | 66 | 187 | 0.0 | 0.0 | 0.00 | 0.00 | 0.00 | 99 | 1009.7 |
| 20260830123251 | 66 | 181 | 0.0 | 0.0 | 0.00 | 0.00 | 0.00 | 99 | 1010.0 |
| 20260830122749 | 66 | 199 | 0.0 | 1.0 | 0.00 | 0.00 | 0.00 | 99 | 1009.7 |
| 20260830122244 | 66 | 186 | 0.0 | 0.0 | 0.00 | 0.00 | 0.00 | 99 | 1009.7 |
| 20260830121739 | 65 | 176 | 0.0 | 0.0 | 0.00 | 0.00 | 0.00 | 99 | 1010.0 |
| 20260830121238 | 65 | 185 | 0.0 | 0.0 | 0.00 | 0.00 | 0.00 | 99 | 1009.7 |
| 20260830120733 | 65 | 159 | 1.0 | 1.0 | 0.00 | 0.00 | 0.00 | 99 | 1009.7 |
| 20260830120230 | 64 | 159 | 0.0 | 0.0 | 0.00 | 0.00 | 0.00 | 99 | 1009.7 |
| 20260830115726 | 64 | 177 | 0.0 | 0.0 | 0.00 | 0.00 | 0.00 | 99 | 1009.7 |
| 20260830115221 | 64 | 179 | 0.0 | 0.0 | 0.00 | 0.00 | 0.00 | 99 | 1010.0 |
| 20260830114718 | 64 | 180 | 0.0 | 0.0 | 0.00 | 0.00 | 0.00 | 99 | 1010.4 |
| 20260830114212 | 63 | 180 | 0.0 | 0.0 | 0.00 | 0.00 | 0.00 | 99 | 1010.0 |
| 20260830113708 | 63 | 180 | 0.0 | 0.0 | 0.00 | 0.00 | 0.00 | 99 | 1010.4 |
| 20260830113202 | 63 | 181 | 0.0 | 0.0 | 0.00 | 0.00 | 0.00 | 99 | 1010.0 |
| 20260830112658 | 63 | 181 | 0.0 | 0.0 | 0.00 | 0.00 | 0.00 | 99 | 1010.4 |
| 20260830112154 | 63 | 173 | 0.0 | 0.0 | 0.00 | 0.00 | 0.00 | 99 | 1010.0 |
| 20260830111650 | 63 | 174 | 0.0 | 0.0 | 0.00 | 0.00 | 0.00 | 99 | 1010.0 |
| 20260830111145 | 63 | 173 | 0.0 | 0.0 | 0.00 | 0.00 | 0.00 | 99 | 1010.0 |
| 20260830110640 | 63 | 181 | 0.0 | 0.0 | 0.00 | 0.00 | 0.00 | 99 | 1010.4 |
| 20260830110136 | 63 | 181 | 0.0 | 0.0 | 0.00 | 0.00 | 0.00 | 99 | 1010.0 |
| 20260830105635 | 63 | 180 | 0.0 | 0.0 | 0.00 | 0.00 | 0.00 | 99 | 1010.0 |
| 20260830105131 | 63 | 180 | 0.0 | 0.0 | 0.00 | 0.00 | 0.00 | 99 | 1009.7 |
| 20260830104628 | 63 | 180 | 0.0 | 0.0 | 0.00 | 0.00 | 0.00 | 99 | 1009.7 |
| 20260830104125 | 63 | 174 | 0.0 | 0.0 | 0.00 | 0.00 | 0.00 | 99 | 1009.7 |
| 20260830103624 | 63 | 172 | 0.0 | 0.0 | 0.00 | 0.00 | 0.00 | 99 | 1009.4 |
| 20260830103119 | 63 | 172 | 0.0 | 0.0 | 0.00 | 0.00 | 0.00 | 99 | 1010.0 |
| 20260830102618 | 63 | 172 | 0.0 | 0.0 | 0.00 | 0.00 | 0.00 | 99 | 1009.4 |
| 20260830102114 | 63 | 172 | 0.0 | 0.0 | 0.00 | 0.00 | 0.00 | 99 | 1009.7 |
| 20260830101609 | 63 | 178 | 0.0 | 0.0 | 0.00 | 0.00 | 0.00 | 99 | 1009.7 |
| 20260830101109 | 63 | 170 | 0.0 | 0.0 | 0.00 | 0.00 | 0.00 | 99 | 1009.4 |
| 20260830100609 | 63 | 173 | 0.0 | 0.0 | 0.00 | 0.00 | 0.00 | 99 | 1009.7 |
| 20260830095557 | 64 | 177 | 0.0 | 0.0 | 0.00 | 0.00 | 0.00 | 99 | 1009.4 |
| 20260830095053 | 64 | 177 | 0.0 | 0.0 | 0.00 | 0.00 | 0.00 | 99 | 1009.4 |
| 20260830094549 | 64 | 177 | 0.0 | 0.0 | 0.00 | 0.00 | 0.00 | 99 | 1009.7 |
| 20260830094044 | 64 | 178 | 0.0 | 0.0 | 0.00 | 0.00 | 0.00 | 99 | 1009.7 |
| 20260830093539 | 64 | 184 | 0.0 | 0.0 | 0.00 | 0.00 | 0.00 | 99 | 1010.0 |
| 20260830093036 | 64 | 189 | 0.0 | 0.0 | 0.00 | 0.00 | 0.00 | 99 | 1009.4 |
| 20260830092530 | 64 | 175 | 0.0 | 0.0 | 0.00 | 0.00 | 0.00 | 99 | 1009.4 |
| 20260830092027 | 64 | 175 | 0.0 | 0.0 | 0.00 | 0.00 | 0.00 | 99 | 1009.7 |
| 20260830091522 | 64 | 166 | 0.0 | 0.0 | 0.00 | 0.00 | 0.00 | 99 | 1009.7 |
| 20260830091021 | 64 | 190 | 0.0 | 0.0 | 0.00 | 0.00 | 0.00 | 99 | 1010.0 |
| 20260830090516 | 64 | 191 | 0.0 | 0.0 | 0.00 | 0.00 | 0.00 | 99 | 1009.7 |
| 20260830090011 | 64 | 189 | 0.0 | 0.0 | 0.00 | 0.00 | 0.00 | 99 | 1009.4 |
| 20260830085506 | 64 | 191 | 0.0 | 0.0 | 0.00 | 0.00 | 0.00 | 99 | 1009.7 |
| 20260830085002 | 64 | 187 | 0.0 | 0.0 | 0.00 | 0.00 | 0.00 | 99 | 1009.7 |
| 20260830084456 | 64 | 183 | 0.0 | 0.0 | 0.00 | 0.00 | 0.00 | 99 | 1010.0 |
| 20260830083951 | 64 | 182 | 0.0 | 0.0 | 0.00 | 0.00 | 0.00 | 99 | 1009.7 |
| 20260830083447 | 64 | 186 | 0.0 | 0.0 | 0.00 | 0.00 | 0.00 | 99 | 1009.7 |
| 20260830082947 | 64 | 177 | 0.0 | 0.0 | 0.00 | 0.00 | 0.00 | 99 | 1010.0 |
| 20260830082442 | 64 | 185 | 0.0 | 0.0 | 0.00 | 0.00 | 0.00 | 99 | 1010.4 |
| 20260830081937 | 64 | 177 | 0.0 | 0.0 | 0.00 | 0.00 | 0.00 | 99 | 1010.0 |
| 20260830081432 | 64 | 181 | 0.0 | 0.0 | 0.00 | 0.00 | 0.00 | 99 | 1010.4 |
| 20260830080931 | 64 | 191 | 0.0 | 0.0 | 0.00 | 0.00 | 0.00 | 99 | 1010.4 |
| 20260830080428 | 64 | 208 | 0.0 | 1.0 | 0.00 | 0.00 | 0.00 | 99 | 1010.0 |
| 20260830075927 | 64 | 196 | 0.0 | 0.0 | 0.00 | 0.00 | 0.00 | 99 | 1010.0 |
| 20260830075422 | 64 | 184 | 0.0 | 0.0 | 0.00 | 0.00 | 0.00 | 99 | 1010.0 |
| 20260830074917 | 64 | 179 | 0.0 | 0.0 | 0.00 | 0.00 | 0.00 | 99 | 1010.0 |
| 20260830074413 | 64 | 176 | 0.0 | 0.0 | 0.00 | 0.00 | 0.00 | 99 | 1010.0 |
| 20260830073909 | 64 | 178 | 0.0 | 0.0 | 0.00 | 0.00 | 0.00 | 99 | 1010.4 |
| 20260830073405 | 64 | 174 | 0.0 | 0.0 | 0.00 | 0.00 | 0.00 | 99 | 1010.4 |
| 20260830072900 | 64 | 174 | 0.0 | 0.0 | 0.00 | 0.00 | 0.00 | 99 | 1010.4 |
| 20260830072355 | 64 | 174 | 0.0 | 0.0 | 0.00 | 0.00 | 0.00 | 99 | 1010.4 |
| 20260830071850 | 64 | 173 | 0.0 | 0.0 | 0.00 | 0.00 | 0.00 | 99 | 1010.7 |
| 20260830071349 | 64 | 181 | 0.0 | 0.0 | 0.00 | 0.00 | 0.00 | 99 | 1010.4 |
| 20260830070848 | 64 | 181 | 0.0 | 0.0 | 0.00 | 0.00 | 0.00 | 99 | 1010.7 |
| 20260830070343 | 64 | 179 | 0.0 | 0.0 | 0.00 | 0.00 | 0.00 | 99 | 1010.7 |
| 20260830065842 | 64 | 175 | 0.0 | 0.0 | 0.00 | 0.00 | 0.00 | 99 | 1010.4 |
| 20260830065337 | 64 | 167 | 0.0 | 0.0 | 0.00 | 0.00 | 0.00 | 99 | 1010.7 |
| 20260830064835 | 64 | 176 | 0.0 | 0.0 | 0.00 | 0.00 | 0.00 | 99 | 1010.7 |
| 20260830064330 | 65 | 181 | 0.0 | 0.0 | 0.00 | 0.00 | 0.00 | 99 | 1011.1 |
| 20260830063830 | 65 | 175 | 0.0 | 0.0 | 0.00 | 0.00 | 0.00 | 99 | 1011.1 |
| 20260830063320 | 64 | 176 | 0.0 | 0.0 | 0.00 | 0.00 | 0.00 | 99 | 1010.7 |
| 20260830062820 | 64 | 175 | 0.0 | 0.0 | 0.00 | 0.00 | 0.00 | 99 | 1010.7 |
| 20260830062313 | 64 | 174 | 0.0 | 0.0 | 0.00 | 0.00 | 0.00 | 99 | 1011.1 |
| 20260830061808 | 64 | 162 | 0.0 | 0.0 | 0.00 | 0.00 | 0.00 | 99 | 1011.1 |
| 20260830061303 | 65 | 176 | 0.0 | 0.0 | 0.00 | 0.00 | 0.00 | 99 | 1010.7 |
| 20260830060800 | 65 | 178 | 0.0 | 0.0 | 0.00 | 0.00 | 0.00 | 99 | 1010.7 |
| 20260830060256 | 65 | 174 | 0.0 | 0.0 | 0.00 | 0.00 | 0.00 | 99 | 1010.7 |
| 20260830055751 | 65 | 175 | 0.0 | 0.0 | 0.00 | 0.00 | 0.00 | 99 | 1011.1 |
| 20260830055248 | 65 | 168 | 0.0 | 0.0 | 0.00 | 0.00 | 0.00 | 99 | 1011.1 |
| 20260830054747 | 65 | 172 | 0.0 | 0.0 | 0.00 | 0.00 | 0.00 | 99 | 1011.1 |
| 20260830054243 | 65 | 173 | 0.0 | 0.0 | 0.00 | 0.00 | 0.00 | 99 | 1011.1 |
| 20260830053738 | 65 | 173 | 0.0 | 0.0 | 0.00 | 0.00 | 0.00 | 99 | 1011.1 |
| 20260830053238 | 65 | 172 | 0.0 | 0.0 | 0.00 | 0.00 | 0.00 | 99 | 1011.1 |
| 20260830052737 | 65 | 175 | 0.0 | 0.0 | 0.00 | 0.00 | 0.00 | 99 | 1011.1 |
| 20260830052233 | 65 | 174 | 0.0 | 0.0 | 0.00 | 0.00 | 0.00 | 99 | 1011.1 |
| 20260830051728 | 66 | 174 | 0.0 | 0.0 | 0.00 | 0.00 | 0.00 | 99 | 1011.1 |
| 20260830051224 | 66 | 175 | 0.0 | 0.0 | 0.00 | 0.00 | 0.00 | 99 | 1011.1 |
| 20260830050722 | 66 | 174 | 0.0 | 0.0 | 0.00 | 0.00 | 0.00 | 99 | 1011.1 |
| 20260830050218 | 66 | 184 | 0.0 | 0.0 | 0.00 | 0.00 | 0.00 | 99 | 1011.1 |
| 20260830045715 | 66 | 175 | 0.0 | 0.0 | 0.00 | 0.72 | 0.72 | 99 | 1011.1 |
| 20260830045211 | 66 | 174 | 0.0 | 0.0 | 0.00 | 0.72 | 0.72 | 99 | 1011.1 |
| 20260830044710 | 66 | 174 | 0.0 | 0.0 | 0.00 | 0.72 | 0.72 | 99 | 1011.1 |
| 20260830044206 | 66 | 175 | 0.0 | 0.0 | 0.00 | 0.72 | 0.72 | 99 | 1011.1 |
| 20260830043701 | 66 | 174 | 0.0 | 0.0 | 0.00 | 0.72 | 0.72 | 99 | 1011.1 |
| 20260830043200 | 67 | 171 | 0.0 | 0.0 | 0.00 | 0.72 | 0.72 | 99 | 1011.1 |